Weather in Altayskoye

Russia / Altai Krai     52°47′08″N   78°45′27″E
temp.,
°C
wind,
m/s
gust,
m/s
humid.,
%
clouds,
%
prec.,
mm/h
press.,
hPa
HPBL,
m
3 august, tue
tue301:00+22nw3359100 0.0 100737
04:00+20wnw116353 0.0 100711
07:00+19w2364100 0.0 100738
10:00+24nw564895 0.0 1008700
13:00+27nw674286 0.1 10082152
16:00+27nnw6735100 0.0 10081904
19:00+26nw6635100 0.0 10081665
22:00+21nnw3654100 0.0 1009126
4 august, wed
wed401:00+20n2257100 0.0 100941
04:00+17w1165100 0.0 100911
07:00+17w3463100 0.0 100976
10:00+19w4568100 0.3 1010278
13:00+24sw344723 0.7 10081294
16:00+26w354099 0.1 10072409
19:00+24nw454998 0.2 1007796
22:00+18nnw497699 0.8 1008200
5 august, thu
thu501:00+17n358387 2.1 100882
04:00+16nw478292 0.0 1008220
07:00+14nw48945 0.0 1008206
10:00+19nw566928 0.0 1008896
13:00+21nnw565794 0.3 10081508
16:00+23nw6749100 0.0 10071559
19:00+23nw675199 0.0 10081316
22:00+21nw6958100 0.0 1008352
6 august, fri
fri601:00+17nnw377875 0.1 1008117
04:00+16wnw4581100 0.0 100872
07:00+16nw34808 0.0 100886
10:00+20nw356056 0.0 1009509
13:00+25wnw5540100 0.0 10082179
16:00+25wnw4639100 0.0 10082137
19:00+23w2250100 0.0 100832
22:00+22ssw225070 0.0 100729
7 august, sat
sat701:00+20sw465199 0.0 100669
04:00+19w35505 0.0 100673
07:00+19w355496 0.0 100694
10:00+23nw344964 0.0 1007504
13:00+27wnw57445 0.0 10061741
16:00+25nw5749100 0.0 1006863
19:00+25nne4650100 0.0 1006504
22:00+20nne356786 0.0 100762